Regional Weather Roundup
Issued by NWS Wilmington, NC

Home | Current Version | Previous Version | Text Only | Print | Product List | Glossary On
Versions: 1 2 3 4 5 6 7 8 9 10 11 12 13 14 15 16 17 18 19 20 21 22 23 24 25 26 27 28 29 30 31 32 33 34 35 36 37 38 39 40 41 42 43 44 45 46 47 48 49 50
000
ASUS42 KILM 042313
RWRILM
RWRILM
REGIONAL HOURLY WEATHER ROUNDUP
NATIONAL WEATHER SERVICE WILMINGTON NC
700 PM EDT WED MAY 04 2016

NOTE: "FAIR" INDICATES FEW OR NO CLOUDS BELOW 12,000 FEET WITH NO
SIGNIFICANT WEATHER AND/OR OBSTRUCTIONS TO VISIBILITY.

...............WFO WILMINGTON COUNTY WARNING AREA...............

......COASTAL NC AND SC COUNTIES......

CITY           SKY/WX    TMP DP  RH WIND       PRES   REMARKS
WILMINGTON     CLOUDY    77  54  44 NW10      29.57S
N MYRTLE BEACH MOSUNNY   77  54  44 W6        29.58S
MYRTLE BEACH   MOSUNNY   79  52  38 VRB6      29.60F

......INLAND NC AND SC COUNTIES.......

CITY           SKY/WX    TMP DP  RH WIND       PRES   REMARKS
LUMBERTON      SUNNY     75  52  44 W5        29.58S
ELIZABETHTOWN  CLOUDY    76  49  38 CALM      29.59S
WHITEVILLE     NOT AVBL
FLORENCE       SUNNY     76  49  38 W8        29.60S
DARLINGTON     MOSUNNY   73  53  49 NW9       29.61S
KINGSTREE      FAIR      73  46  38 W10       29.61R
HARTSVILLE     FAIR      72  46  40 W6        29.61S
BENNETTSVILLE  CLOUDY    77  54  44 CALM      29.60S
CONWAY         FAIR      73  52  46 W3        29.59S
GEORGETOWN     FAIR      77  46  33 W12       29.61R
MARION         FAIR      73  52  46 NW6       29.59S

....................REST OF NORTH CAROLINA......................

.........EASTERN NC.........

CITY           SKY/WX    TMP DP  RH WIND       PRES   REMARKS
CAPE HATTERAS  MOCLDY    69  65  86 CALM      29.59R
JACKSONVILLE   PTSUNNY   74  58  57 CALM      29.58F
MOREHEAD CITY  CLOUDY    71  64  78 W9        29.57S
KENANSVILLE    CLOUDY    74  50  43 NW6       29.60S
NEW BERN       CLOUDY    73  57  57 NW7       29.58F
ELIZABETH CITY MOCLDY    62  58  86 NE15      29.62S

.........CENTRAL NC.........

CITY           SKY/WX    TMP DP  RH WIND       PRES   REMARKS
RALEIGH DURHAM MOSUNNY   70  49  47 W5        29.62S
ROCKY MOUNT    SUNNY     72  53  51 NW7       29.59F
ROANOKE RAPIDS NOT AVBL
FAYETTEVILLE   SUNNY     75  47  36 W6        29.58F
HOFFMAN        PTSUNNY   72  49  45 NW10      29.60F

.........WESTERN NC.........

CITY           SKY/WX    TMP DP  RH WIND       PRES   REMARKS
CHARLOTTE      MOSUNNY   69  40  34 W9        29.64S
GREENSBORO     MOSUNNY   68  42  38 W8        29.62S
HICKORY        NOT AVBL
BOONE          NOT AVBL
ASHEVILLE      NOT AVBL

.....................REST OF SOUTH CAROLINA.....................

.........EASTERN SC.........

CITY           SKY/WX    TMP DP  RH WIND       PRES   REMARKS
CHARLESTON     MOSUNNY   77  42  28 W12       29.62S
BEAUFORT MCAS  MOSUNNY   76  46  34 W9        29.64S
HILTON HEAD    MOSUNNY   79  46  31 W9        29.65F

.........CENTRAL SC.........

CITY           SKY/WX    TMP DP  RH WIND       PRES   REMARKS
COLUMBIA       MOSUNNY   73  43  33 W14       29.64R
ORANGEBURG     SUNNY     74  42  31 NW8       29.64S
SUMTER SHAW    SUNNY     74  45  35 W9        29.60S

.........WESTERN SC.........

CITY           SKY/WX    TMP DP  RH WIND       PRES   REMARKS
GREENVILLE     NOT AVBL
ROCK HILL      SUNNY     69  43  38 W6        29.64S
ANDERSON       MOSUNNY   70  42  36 SW15      29.66R
CLEMSON        NOT AVBL
GREENWOOD      SUNNY     70  41  34 SW12      29.67F


...................COASTAL AND OFFSHORE REPORTS..................

................LOCAL PIERS AND NC RESERVE................


STATION/POSITION TIME  SKY/WX   TEMP    WIND        PRES    VSBY
                                AIR SEA DIR/SP/G
                 (UTC)          (F)     (DEG/KT/KT) (MB)    (MI)
JOHNY MRCER PIER 2200            76 69              1000.4R
NC RESRV MASNBRO NOT AVBL
OCEAN CREST PIER NOT AVBL
SPRINGMAID  PIER 2200            77 70              1001.6S


................COASTAL AND OFFSHORE BUOYS................


STATION/POSITION TIME  SKY/WX   TEMP    WIND        PRES    VSBY
                                AIR SEA DIR/SP/G
                 (UTC)          (F)     (DEG/KT/KT) (MB)    (MI)
DIMNDSHOAL 41025 2250            69 71   10/  6/  8 1001.6R
WVE H/P(F/S)=  3/ 8 SWL H/P/D(F/S/D)=  3/160/ 8

CAPE LOOKOUT     2300            70     250/  6/  8 1001.0R
ONSLOW BAY 41036 NOT AVBL
ONSLOW BAY 41064 NOT AVBL
ONSLOW BAY 41159 2225               73                N/A
WVE H/P(F/S)=  5/ 7

5SE WRITBC 41038 2208            72 70  230/ 16/ 21 1002.0R
MASNBO INL 41110 2206               70                N/A
WVE H/P(F/S)=  4/ 6

WILM HARBR 41108 2226               70                N/A
WVE H/P(F/S)=  4/ 7

27SE WRITB 41037 2208            72 72  230/ 16/ 21 1002.1
FRYING PAN 41013 2300            73 72  240/ 16/ 19 1001.5F
SUNST NRSH 41024 NOT AVBL
CAPRS NRSH 41029 2208            73 72  230/ 17/ 21 1002.2F
EDISTO     41004 2250            74 75  230/ 19/ 21 1002.2F
WVE H/P(F/S)=  4/ 4 SWL H/P/D(F/S/D)=  2/ 9



..........OFFSHORE BUOYS BEYOND 100 NM OFFSHORE...........
.....IN A TRIANGLE---HAT TO BERMUDA TO BAHAMAS TO HAT.....


STATION/POSITION TIME  SKY/WX   TEMP    WIND        PRES    VSBY
                                AIR SEA DIR/SP/G
                 (UTC)          (F)     (DEG/KT/KT) (MB)    (MI)
150E HAT   41001 NOT AVBL
W BERMUDA  41048 2250            70 70  120/ 12/ 14 1008.7S
WVE H/P(F/S)=  5/ 6 SWL H/P/D(F/S/D)=  5/180/ 6

ATLANTIC S 41049 2250            76 77  130/ 10/ 12 1018.0R
WVE H/P(F/S)=  3/ 9 SWL H/P/D(F/S/D)=  3/ 80/ 9

E BAHAMAS  41046 2250            78 80  140/ 16/ 17 1014.0R
WVE H/P(F/S)=  5/ 8 SWL H/P/D(F/S/D)=  2/ 50/ 8

NE BAHAMAS 41047 2250            77 76  200/ 12/ 14 1011.5
WVE H/P(F/S)=  4/ 6 SWL H/P/D(F/S/D)=  3/120/ 6

120E CANVRL41010 2220            74 77  220/ 19/ 23 1007.1R

END



USA.gov is the U.S. government's official web portal to all federal, state and local government web resources and services.